FW8702 Weather Reports


time (UTC)temp
C
wind
direction
speed
KPH
gust
KPH
rain 1hr
cm
rain 24hr
cm
rain mn
cm
humidity
%
barometer
mb
20260905044603 20 281 0.0 4.8 0.00 0.00 0.00 79 1017.5
20260905043025 20 281 0.0 8.0 0.00 0.00 0.00 78 1017.6
20260905041519 21 304 1.6 3.2 0.00 0.00 0.00 76 1017.4
20260905040040 21 296 0.0 3.2 0.00 0.00 0.00 75 1017.4
20260905034524 21 281 0.0 8.0 0.00 0.00 0.00 77 1017.6
20260905033016 20 261 1.6 8.0 0.00 0.00 0.00 80 1017.4
20260905031521 20 332 1.6 8.0 0.00 0.00 0.00 81 1017.6
20260905030027 20 269 0.0 4.8 0.00 0.00 0.00 80 1017.7
20260905024602 20 268 0.0 3.2 0.00 0.00 0.00 78 1017.7
20260905023024 21 326 1.6 4.8 0.00 0.00 0.00 77 1017.7
20260905021512 21 275 1.6 6.4 0.00 0.00 0.00 76 1017.6
20260905020051 21 279 0.0 6.4 0.00 0.00 0.00 77 1017.8
20260905014518 21 324 1.6 8.0 0.00 0.00 0.00 80 1018.0
20260905013103 21 339 1.6 6.4 0.00 0.00 0.00 80 1018.1
20260905011506 21 329 0.0 4.8 0.00 0.00 0.00 81 1018.1
20260905004529 20 262 0.0 4.8 0.00 0.00 0.00 83 1018.1
20260905003048 20 289 0.0 6.4 0.00 0.00 0.00 82 1018.2
20260905001518 20 275 0.0 1.6 0.00 0.00 0.00 83 1018.3
20260905000045 20 269 1.6 3.2 0.00 0.00 0.00 83 1018.4
20260904234526 20 276 0.0 3.2 0.00 0.00 0.00 83 1018.5
20260904233025 20 273 1.6 3.2 0.00 0.00 0.00 83 1018.5
20260904231607 20 302 0.0 4.8 0.00 0.00 0.00 83 1018.7
20260904230034 20 276 3.2 6.4 0.00 0.00 0.00 82 1018.5
20260904224547 20 310 0.0 1.6 0.00 0.00 0.00 82 1018.6
20260904223038 20 68 0.0 3.2 0.00 0.00 0.00 82 1018.7
20260904221533 20 314 0.0 1.6 0.00 0.00 0.00 81 1018.8
20260904220104 21 319 0.0 3.2 0.00 0.00 0.00 81 1018.7
20260904214547 21 294 0.0 0.0 0.00 0.00 0.00 81 1018.8
20260904213025 21 285 0.0 3.2 0.00 0.00 0.00 80 1018.8
20260904211516 21 283 0.0 0.0 0.00 0.00 0.00 80 1018.9
20260904210022 21 283 0.0 4.8 0.00 0.00 0.00 80 1018.8
20260904204515 21 81 0.0 6.4 0.00 0.00 0.00 81 1018.8
20260904203103 21 88 1.6 3.2 0.00 0.00 0.00 80 1019.0
20260904201511 21 295 1.6 6.4 0.00 0.00 0.00 79 1019.0
20260904200026 22 282 1.6 3.2 0.00 0.00 0.00 79 1018.9
20260904194502 22 292 0.0 3.2 0.00 0.00 0.00 79 1018.8
20260904193057 22 285 0.0 0.0 0.00 0.00 0.00 79 1018.7
20260904191533 22 296 0.0 3.2 0.00 0.00 0.00 78 1018.6
20260904190045 23 338 0.0 4.8 0.00 0.00 0.00 77 1018.4
20260904184513 23 277 0.0 1.6 0.00 0.00 0.00 76 1018.4
20260904183101 23 277 0.0 3.2 0.00 0.00 0.00 75 1018.2
20260904181515 24 302 0.0 3.2 0.00 0.00 0.00 73 1018.2
20260904180036 26 281 0.0 0.0 0.00 0.00 0.00 72 1018.1
20260904174539 26 281 0.0 0.0 0.00 0.00 0.00 69 1018.0
20260904173110 27 281 0.0 1.6 0.00 0.00 0.00 67 1018.0
20260904171523 28 281 1.6 3.2 0.00 0.00 0.00 64 1017.8
20260904170041 30 237 0.0 0.0 0.00 0.00 0.00 55 1017.7
20260904164510 31 231 0.0 0.0 0.00 0.00 0.00 45 1017.8
20260904163022 32 213 0.0 3.2 0.00 0.00 0.00 45 1018.0
20260904161606 31 121 0.0 3.2 0.00 0.00 0.00 48 1018.0
20260904160044 31 220 1.6 6.4 0.00 0.00 0.00 46 1018.2
20260904154510 31 215 1.6 6.4 0.00 0.00 0.00 48 1018.4
20260904153019 31 110 0.0 4.8 0.00 0.00 0.00 47 1018.4
20260904151503 31 235 0.0 4.8 0.00 0.00 0.00 45 1018.5
20260904150008 31 240 1.6 4.8 0.00 0.00 0.00 44 1018.6
20260904144524 31 230 4.8 9.7 0.00 0.00 0.00 46 1018.7
20260904143003 31 249 0.0 8.0 0.00 0.00 0.00 46 1018.9
20260904141557 31 208 3.2 9.7 0.00 0.00 0.00 48 1018.8
20260904140042 32 210 0.0 4.8 0.00 0.00 0.00 48 1018.9
20260904134525 31 191 1.6 8.0 0.00 0.00 0.00 48 1019.1
20260904133004 31 231 1.6 6.4 0.00 0.00 0.00 48 1019.2
20260904131541 31 222 3.2 6.4 0.00 0.00 0.00 48 1019.3
20260904130023 30 212 0.0 8.0 0.00 0.00 0.00 50 1019.4
20260904124533 30 132 1.6 9.7 0.00 0.00 0.00 50 1019.6
20260904123040 31 164 0.0 4.8 0.00 0.00 0.00 49 1019.8
20260904121534 30 125 1.6 9.7 0.00 0.00 0.00 48 1019.9
20260904120040 30 244 1.6 8.0 0.00 0.00 0.00 49 1019.9
20260904114503 29 218 3.2 12.9 0.00 0.00 0.00 51 1020.0
20260904113011 30 92 3.2 8.0 0.00 0.00 0.00 52 1020.1
20260904111546 30 188 3.2 6.4 0.00 0.00 0.00 51 1020.2
20260904110006 30 153 0.0 3.2 0.00 0.00 0.00 49 1020.3
20260904104550 28 200 0.0 6.4 0.00 0.00 0.00 54 1020.6
20260904103055 28 275 1.6 6.4 0.00 0.00 0.00 56 1020.7
20260904101515 28 217 3.2 4.8 0.00 0.00 0.00 54 1020.8
20260904100025 28 183 0.0 6.4 0.00 0.00 0.00 54 1021.1
20260904094508 27 131 1.6 4.8 0.00 0.00 0.00 56 1021.1
20260904093051 26 278 3.2 6.4 0.00 0.00 0.00 55 1021.5
20260904091550 26 275 3.2 11.3 0.00 0.00 0.00 57 1021.6
20260904090002 26 280 1.6 3.2 0.00 0.00 0.00 57 1021.6
20260904084502 26 262 0.0 4.8 0.00 0.00 0.00 58 1021.6
20260904083011 25 172 0.0 3.2 0.00 0.00 0.00 57 1021.5
20260904081506 25 123 1.6 4.8 0.00 0.00 0.00 58 1021.5
20260904080105 25 74 0.0 4.8 0.00 0.00 0.00 59 1021.5
20260904074533 24 150 0.0 4.8 0.00 0.00 0.00 63 1021.5
20260904073006 23 106 0.0 4.8 0.00 0.00 0.00 64 1021.5
20260904071525 23 111 0.0 9.7 0.00 0.00 0.00 67 1021.4
20260904070117 23 82 3.2 6.4 0.00 0.00 0.00 63 1021.3
20260904064507 22 292 1.6 6.4 0.00 0.00 0.00 66 1021.2
20260904063027 22 331 0.0 6.4 0.00 0.00 0.00 71 1021.2
20260904061552 21 270 0.0 4.8 0.00 0.00 0.00 69 1020.9
20260904060037 21 330 1.6 4.8 0.00 0.00 0.00 71 1021.0
20260904054601 20 333 1.6 9.7 0.00 0.00 0.00 74 1021.0
20260904053029 19 350 0.0 4.8 0.00 0.00 0.00 74 1020.9
20260904051534 20 292 0.0 9.7 0.00 0.00 0.00 74 1020.8
20260904050040 18 295 1.6 8.0 0.00 0.00 0.00 78 1020.7